Starlink 32431

operational
NORAD ID: 61256 Int'l Des: 2024-175 Owner: SPXS Country: US Constellation: starlink
LEOCIRCULAR

About Starlink 32431

Description loading...

Live Position

Loading 3D Globe...

Upcoming Passes

Altitude History

Altitude vs Time

uPlot chart will show altitude changes over time

Two-Line Element Set

1 61256U 24175P 26035.24892710 .00000573 00000-0 31463-4 0 9994
2 61256 53.1615 349.3699 0001203 98.2162 261.8975 15.30189812 76335
Epoch: Feb 4, 2026 • Age: 14 hours

Current Status

Altitude 478.3 km
Velocity 7.63 km/s
Sub-Earth Point -10.12°S, 96.4°W
Launch Date Sep 25, 2024
Age 1.3 years
Type internet

Technical Details

Classification Payload
Mass 730.00 kg
Dry Mass 700.00 kg
Total Mass 730.00 kg
Length 0.30 m
Diameter 4.10 m
Span 29.00 m
Shape Box + pan
Manufacturer SPXS
Bus Type Starlink V2M
Phase Status In Orbit
Owner/State SPXS/US

Large Constellations

Loading constellations...